VLG5VJ LEBL-LEPA

Flight info

Callsign VLG5VJ
Flight time 0h 28m
Altitude 15000
Route LARPA N859 TOLSO
Aircraft A320/M-SDE3FGHIRWY/LB1

Departure

Time 2026-05-04 06:00
Airport Josep Tarradellas Barcelona-El Prat Airport (LEBL)

Arrival

Time 2026-05-04 06:28
Airport Palma de Mallorca Airport (LEPA)
Time Latitude Longitude Altitude Speed Heading
2026-05-04 05:36 41.29178 2.08014 4 ft 0 kts 153°
2026-05-04 05:38 41.29173 2.08018 3 ft 0 kts 156°
2026-05-04 05:52 41.29187 2.08009 3 ft 4 kts 155°
2026-05-04 05:52 41.29211 2.07995 4 ft 3 kts 155°
2026-05-04 05:53 41.29231 2.07981 3 ft 4 kts 133°
2026-05-04 05:54 41.29227 2.07907 6 ft 0 kts 65°
2026-05-04 05:55 41.29232 2.07921 5 ft 10 kts 65°
2026-05-04 05:55 41.29292 2.08093 3 ft 23 kts 65°
2026-05-04 05:56 41.29360 2.08289 3 ft 23 kts 66°
2026-05-04 05:56 41.29295 2.08429 3 ft 21 kts 155°
2026-05-04 05:56 41.29163 2.08509 3 ft 21 kts 155°
2026-05-04 05:56 41.29031 2.08589 7 ft 20 kts 158°
2026-05-04 05:57 41.28903 2.08663 5 ft 21 kts 153°
2026-05-04 05:57 41.28899 2.08831 3 ft 21 kts 64°
2026-05-04 05:57 41.28959 2.09009 3 ft 22 kts 66°
2026-05-04 05:57 41.29021 2.09197 4 ft 23 kts 65°
2026-05-04 05:58 41.29094 2.09404 3 ft 29 kts 64°
2026-05-04 05:58 41.29189 2.09677 3 ft 33 kts 65°
2026-05-04 05:58 41.29288 2.09952 4 ft 33 kts 62°
2026-05-04 05:58 41.29360 2.10205 3 ft 27 kts 105°
2026-05-04 05:59 41.29237 2.10316 5 ft 17 kts 195°
2026-05-04 05:59 41.29130 2.10077 6 ft 62 kts 245°
2026-05-04 05:59 41.28860 2.09287 6 ft 123 kts 245°
2026-05-04 05:59 41.28432 2.08056 18 ft 167 kts 249°
2026-05-04 06:00 41.27935 2.06689 624 ft 163 kts 231°
2026-05-04 06:00 41.26952 2.05996 1232 ft 164 kts 184°
2026-05-04 06:00 41.25819 2.05982 1900 ft 162 kts 182°
2026-05-04 06:00 41.24653 2.05946 2279 ft 176 kts 183°
2026-05-04 06:01 41.23349 2.05897 2506 ft 198 kts 183°
2026-05-04 06:01 41.21935 2.05842 2911 ft 209 kts 184°
2026-05-04 06:03 41.11682 2.01650 7767 ft 241 kts 209°
2026-05-04 06:03 41.10185 2.00626 8550 ft 243 kts 209°
2026-05-04 06:05 40.96717 1.96096 11959 ft 340 kts 185°
2026-05-04 06:05 40.92138 1.97938 13372 ft 363 kts 147°
2026-05-04 06:05 40.90372 2.00386 14021 ft 374 kts 132°
2026-05-04 06:06 40.88775 2.03113 14619 ft 377 kts 132°
2026-05-04 06:06 40.87167 2.05874 14899 ft 380 kts 132°
2026-05-04 06:06 40.85545 2.08655 14978 ft 388 kts 132°
2026-05-04 06:06 40.84443 2.10535 14985 ft 393 kts 132°
2026-05-04 06:07 40.82195 2.14363 14986 ft 395 kts 132°
2026-05-04 06:07 40.80534 2.17191 14991 ft 395 kts 132°
2026-05-04 06:07 40.78848 2.20057 14989 ft 395 kts 132°
2026-05-04 06:07 40.77028 2.22744 14987 ft 391 kts 141°
2026-05-04 06:08 40.74905 2.24937 14989 ft 385 kts 152°
2026-05-04 06:08 40.73367 2.26188 14989 ft 384 kts 153°
2026-05-04 06:08 40.71017 2.27820 14989 ft 379 kts 162°
2026-05-04 06:08 40.68581 2.29147 14990 ft 380 kts 162°
2026-05-04 06:09 40.66145 2.30480 14992 ft 380 kts 162°
2026-05-04 06:09 40.63733 2.31801 14994 ft 380 kts 162°
2026-05-04 06:11 40.46529 2.40500 14989 ft 376 kts 169°
2026-05-04 06:11 40.43999 2.41374 14987 ft 376 kts 169°
2026-05-04 06:13 40.26283 2.47521 14985 ft 377 kts 169°
2026-05-04 06:14 40.14938 2.61626 14979 ft 399 kts 123°
2026-05-04 06:14 40.13547 2.64769 14979 ft 399 kts 123°
2026-05-04 06:15 40.12170 2.67885 14956 ft 389 kts 123°
2026-05-04 06:15 40.10839 2.70900 14821 ft 376 kts 123°
2026-05-04 06:15 40.09552 2.73813 14705 ft 364 kts 124°
2026-05-04 06:15 40.08302 2.76633 14589 ft 353 kts 124°
2026-05-04 06:16 40.07102 2.79334 14462 ft 343 kts 124°
2026-05-04 06:16 40.05922 2.81988 14343 ft 333 kts 124°
2026-05-04 06:16 40.04769 2.84584 14100 ft 328 kts 124°
2026-05-04 06:16 40.03626 2.87149 13796 ft 326 kts 124°
2026-05-04 06:17 40.02491 2.89691 13466 ft 324 kts 124°
2026-05-04 06:17 40.01359 2.92221 13128 ft 321 kts 124°
2026-05-04 06:17 40.00240 2.94727 12798 ft 319 kts 123°
2026-05-04 06:17 39.99129 2.97217 12466 ft 316 kts 123°
2026-05-04 06:18 39.98025 2.99685 12145 ft 314 kts 123°
2026-05-04 06:18 39.96926 3.02133 11818 ft 311 kts 123°
2026-05-04 06:18 39.95834 3.04557 11494 ft 309 kts 123°
2026-05-04 06:20 39.85005 3.10504 10004 ft 246 kts 188°
2026-05-04 06:20 39.83302 3.10293 9675 ft 245 kts 187°
2026-05-04 06:21 39.76571 3.09456 8298 ft 241 kts 188°
2026-05-04 06:21 39.74909 3.09251 7974 ft 239 kts 187°
2026-05-04 06:22 39.73252 3.09047 7647 ft 238 kts 188°
2026-05-04 06:22 39.71659 3.08548 7325 ft 235 kts 206°
2026-05-04 06:25 39.61227 2.88226 4085 ft 174 kts 237°
2026-05-04 06:25 39.60590 2.86901 4043 ft 163 kts 237°
2026-05-04 06:26 39.59992 2.85664 3907 ft 163 kts 237°
2026-05-04 06:26 39.59413 2.84400 3668 ft 163 kts 238°
2026-05-04 06:26 39.58826 2.83148 3307 ft 162 kts 237°
2026-05-04 06:26 39.58236 2.81911 2779 ft 163 kts 237°
2026-05-04 06:27 39.55550 2.76193 159 ft 184 kts 239°
2026-05-04 06:28 39.54935 2.74900 38 ft 147 kts 238°
2026-05-04 06:28 39.54578 2.74140 38 ft 53 kts 238°
2026-05-04 06:28 39.54435 2.73830 38 ft 24 kts 253°
2026-05-04 06:28 39.54515 2.73699 38 ft 18 kts 327°
2026-05-04 06:29 39.54636 2.73621 38 ft 19 kts 345°
2026-05-04 06:29 39.54697 2.73627 36 ft 7 kts 53°
2026-05-04 06:29 39.54713 2.73660 38 ft 0 kts 60°